Vertical_Velocity
-2 -1 -0 1 1 1 0 -1 -1 -1 -0 -0 -0 -0 -0 -0 0 0 0 0 0 1 2 2 3 3 3 3 2 3 12 8 2 -0 6 3 2 3 5 10 12 10 4 2 2 2 2 1 1 0 1 2 1 1 0 1 1 2 1 1 1 0 -0 -0 -1 -1 -1 -1 -1 -1 -1 -0 -1 -1 -1 -2 -1 -1 -1 -0 0 0 1 1 0 -0 -1 -1 -1 -0 -1 -0 -0 -0 -0 -0 -0 0 0 -0 -0 0 0
-3 -2 -2 -0 1 2 2 1 -0 -0 -0 0 0 -0 -1 -0 -0 0 0 0 0 1 1 2 3 2 2 2 0 1 10 9 4 3 10 5 5 7 10 11 10 8 3 2 2 2 2 1 0 0 2 2 1 1 1 1 2 2 2 2 1 1 0 -0 -1 -1 -1 -1 -1 -1 -0 -0 -1 -1 -2 -2 -2 -1 -0 -0 0 1 1 1 0 -0 -1 -1 -0 -0 -1 -0 -1 -1 -1 -0 0 0 0 -0 -0 0 0
-2 -3 -2 -1 -0 1 2 2 1 0 0 1 1 0 -0 -0 -0 -0 -0 0 0 1 1 1 2 2 1 1 0 2 8 9 6 4 9 6 6 9 12 10 8 5 1 2 2 2 2 1 0 1 2 2 1 1 1 2 2 2 2 2 2 1 0 -0 -1 -1 -1 -1 -1 -1 -1 -0 -1 -1 -2 -2 -2 -1 -1 -0 0 0 1 1 0 -0 -1 -1 -0 -0 -1 -1 -1 -0 -0 -0 0 0 0 -0 -0 -0 0
-2 -2 -2 -2 -1 -0 1 2 2 2 1 1 1 1 0 -0 -0 -0 -0 0 0 1 1 1 1 1 1 1 1 2 7 8 6 4 7 7 8 10 11 9 7 4 0 2 3 2 1 1 1 1 2 2 1 1 1 2 2 2 2 2 2 1 0 -0 -0 -1 -1 -1 -1 -1 -1 -1 -1 -2 -2 -2 -1 -1 -1 -0 -0 0 0 0 0 -0 -1 -1 -0 -0 -1 -1 -0 -0 -0 -0 -0 -0 0 0 -0 -0 0
-1 -1 -1 -2 -2 -1 -0 1 2 2 1 1 1 1 1 0 0 0 0 0 0 1 1 1 1 1 2 4 3 3 7 8 7 6 9 8 9 9 6 6 6 4 0 2 3 2 1 0 1 2 2 2 1 1 1 1 1 2 2 2 2 1 1 0 -0 -0 -0 -1 -1 -1 -1 -1 -1 -2 -3 -2 -1 -1 -0 -0 -0 -0 0 -0 0 0 -0 -0 -0 0 -0 -0 -0 0 0 -0 -0 -0 0 -0 -0 -0 0
-1 -1 -1 -1 -1 -1 -1 0 1 2 2 1 1 1 1 0 0 0 0 0 0 0 1 1 1 1 1 4 4 4 8 9 6 5 11 7 4 2 0 -1 1 3 0 2 2 2 1 0 1 2 2 2 2 1 1 1 1 1 2 2 1 1 1 0 0 0 -0 -1 -1 -1 -1 -0 -0 -0 -2 -2 -1 -0 0 0 0 0 -0 -0 -0 0 -0 -0 -0 0 -0 0 0 0 -0 -0 -0 -0 0 0 -0 -0 -0
-2 -2 -1 -1 -1 -1 -1 -1 -0 1 2 2 1 1 0 0 0 0 1 1 0 0 1 1 1 1 1 2 2 4 10 11 6 2 9 5 2 1 3 3 3 2 -1 -1 0 2 0 1 2 2 2 3 3 2 2 1 1 1 2 2 1 1 1 1 0 0 0 -1 -1 -1 -2 -1 0 1 1 -1 -1 -0 0 0 0 0 0 -0 0 1 1 0 0 0 0 0 0 0 0 -0 -0 -0 0 0 0 -0 -0
-4 -3 -2 -1 -1 -1 -2 -2 -1 0 2 2 2 1 0 0 0 1 1 1 1 1 1 1 1 1 2 2 2 5 12 12 6 1 5 4 2 2 8 10 8 5 4 -0 -1 -0 0 2 2 3 3 3 3 3 2 2 1 0 2 2 2 1 1 1 0 0 0 -0 -1 -1 -2 -2 -2 -0 2 2 1 0 0 1 1 1 0 0 0 1 1 1 1 1 0 0 0 0 0 0 -0 -0 0 0 0 0 -0
-5 -5 -4 -2 -1 -1 -1 -1 -1 0 1 2 3 2 2 1 1 1 1 1 1 1 1 1 1 1 2 3 3 5 12 12 6 1 2 3 4 7 13 11 14 19 27 10 0 -3 0 2 3 3 3 4 4 3 3 2 1 0 2 2 2 1 2 1 0 -0 -0 -0 -0 -1 -2 -2 -2 -2 -0 1 2 1 1 1 1 1 1 0 0 0 1 1 1 1 1 1 1 1 0 0 -0 -0 -0 0 0 0 0
-5 -5 -5 -4 -2 -1 -1 -1 -1 -0 1 2 3 3 3 2 1 0 1 2 2 2 1 1 1 0 1 2 3 5 9 11 6 1 0 2 6 11 13 7 16 31 43 18 4 -2 1 3 3 3 4 4 4 4 3 2 1 0 2 2 2 2 2 1 0 -0 -0 0 0 -0 -1 -2 -2 -2 -2 -0 1 1 1 1 1 1 1 1 0 0 0 1 1 1 1 1 1 0 0 0 0 0 -0 0 0 0 -0
-3 -4 -6 -5 -4 -2 -1 -1 -0 -0 0 1 3 4 4 2 1 1 1 2 3 3 3 2 2 1 -1 -1 1 4 5 8 5 1 -1 5 10 12 9 -0 11 29 39 16 4 -1 2 3 3 3 4 4 4 4 3 1 1 1 2 2 2 2 2 1 1 1 2 1 1 0 -0 -1 -1 -2 -2 -2 -1 0 1 1 1 1 1 1 0 0 0 0 1 1 0 1 1 0 -0 0 0 0 -0 0 -0 -0 -0
-1 -3 -4 -5 -5 -4 -2 -1 -1 -0 -0 1 2 3 4 4 3 2 1 2 3 5 7 4 3 2 1 -1 -0 2 4 4 3 0 -3 6 11 11 5 -4 7 23 30 11 2 -0 2 2 2 3 4 4 4 3 2 1 1 1 2 2 2 2 1 1 0 0 1 2 1 0 0 0 -0 -1 -1 -2 -1 -1 -0 0 1 1 1 1 1 0 -0 0 0 0 0 1 0 0 -0 0 0 0 0 0 0 0 -0
0 -0 -2 -4 -5 -5 -4 -2 -1 -1 -1 -0 0 2 3 4 4 3 2 2 2 4 8 8 6 5 3 2 1 1 4 0 -1 -2 -4 6 10 10 7 -1 6 18 24 8 0 -1 0 1 1 2 3 4 3 3 1 1 1 2 3 2 2 2 1 1 0 -1 -1 0 0 0 1 1 1 1 0 -1 -1 -1 -0 0 0 0 1 1 1 1 0 0 0 0 0 0 0 0 -0 0 0 0 0 0 -0 -0 -0
2 2 0 -2 -4 -5 -5 -4 -2 -1 -1 -1 -1 -1 0 2 2 3 3 2 2 2 4 8 10 9 4 2 2 2 4 -1 -4 -4 -2 6 10 11 8 1 6 15 21 7 0 -2 -1 -0 1 2 3 3 3 2 1 1 2 3 4 3 2 1 1 1 0 -1 -1 -1 -1 -0 0 1 2 2 2 1 1 1 1 1 1 1 1 0 1 1 1 0 0 0 0 0 0 -0 -0 0 0 0 0 0 0 -0 -0
2 2 2 1 -1 -3 -4 -4 -3 -2 -2 -2 -2 -2 -1 -0 1 1 2 2 2 1 0 4 8 10 6 3 2 2 3 -1 -3 -2 1 8 11 11 8 5 8 14 20 9 1 -3 -2 -0 2 2 3 3 2 2 1 2 3 4 5 3 2 1 0 0 1 1 1 -0 -0 -1 -1 0 0 1 2 2 2 1 1 1 1 1 1 0 0 1 1 1 1 0 0 0 -0 -0 -0 0 0 0 0 0 0 0 0
1 2 2 1 -1 -2 -3 -4 -4 -3 -2 -2 -1 -1 -1 -0 0 1 2 2 2 1 0 1 4 8 10 5 3 3 3 -0 -1 2 7 11 13 14 12 8 10 15 21 11 3 -2 -2 1 2 3 3 2 2 1 1 3 4 6 5 4 3 1 0 -0 -0 1 3 3 1 0 -1 0 -0 -1 0 1 0 0 0 1 2 2 1 1 0 1 1 1 1 1 1 0 -0 -0 -0 0 0 0 0 0 0 0 0
2 2 1 1 0 -1 -2 -3 -4 -3 -3 -2 -1 -0 -0 0 1 2 3 3 3 2 1 0 1 4 9 8 5 3 2 0 1 4 11 12 14 16 15 11 14 20 25 12 4 1 1 2 3 3 2 1 1 2 3 5 6 7 6 4 3 2 1 -1 -2 -2 -1 2 4 4 2 0 -0 -1 -1 -0 -1 -1 -1 0 1 2 2 1 1 1 1 1 1 1 1 0 -0 -0 -0 0 0 0 0 0 0 0 0
3 3 2 2 2 1 0 -1 -2 -2 -2 -2 -2 -1 -1 0 1 2 2 3 3 3 2 2 1 2 4 9 8 4 2 1 1 4 10 12 15 17 16 12 17 24 26 10 3 1 3 4 4 3 1 -1 -0 2 4 6 8 8 7 5 4 2 1 -0 -1 -3 -5 -3 1 5 5 2 1 0 -1 -1 -1 -1 -1 -0 0 1 1 1 1 1 1 1 1 1 1 0 0 -0 -0 0 0 0 0 0 0 0 0
3 3 3 4 4 3 2 1 0 -1 -1 -2 -2 -2 -2 -1 0 1 2 3 3 3 3 3 2 1 -0 6 8 7 3 2 2 3 7 12 15 16 17 14 17 20 18 4 0 2 5 6 5 3 -1 -2 -1 1 4 7 9 9 8 6 5 3 1 0 -0 -0 -1 -3 -1 2 4 2 1 0 -1 -1 -1 -1 -1 -1 -0 0 1 1 1 1 1 1 1 1 1 1 0 0 0 0 0 0 0 0 0 0 0
2 3 4 5 5 4 4 3 2 1 0 0 -0 -2 -3 -2 -2 -0 0 1 1 1 1 2 2 1 -1 2 5 7 6 3 2 3 3 11 14 15 17 16 16 14 8 -0 -1 1 4 4 2 -1 -4 -2 -1 0 2 6 8 9 9 8 6 3 1 0 1 2 4 1 1 0 0 -1 -1 -0 -1 -1 -1 -1 -1 -1 -1 -0 -0 0 1 1 1 1 1 1 1 1 1 1 0 0 0 0 0 0 0 0 0
1 2 4 4 5 5 5 4 3 2 1 2 1 -0 -2 -2 -2 -2 -1 -1 -0 0 1 2 3 3 2 1 2 4 4 2 1 2 1 7 11 14 18 17 13 8 1 -2 -3 -2 -2 -4 -6 -8 -5 -2 -1 -1 0 5 8 9 10 9 6 4 2 1 1 3 5 4 3 1 -1 -2 -2 -1 -0 -0 -0 -0 -1 -1 -1 -1 -0 0 1 1 0 1 1 1 1 1 1 1 1 1 1 0 0 0 0 0 0
0 1 2 4 4 5 5 4 4 3 2 3 2 0 -1 0 0 -0 1 1 2 3 4 4 5 6 6 5 3 2 2 1 0 0 0 4 8 13 17 15 9 3 -2 -2 -2 -3 -5 -12 -14 -12 -3 -1 -1 -1 -1 3 6 8 10 10 8 5 2 1 1 3 4 6 5 3 1 0 -0 -0 1 1 1 0 -0 -0 -1 -1 -1 -0 0 1 0 0 1 1 1 1 1 1 1 1 1 1 0 0 0 0 0
-0 -0 1 2 3 4 4 4 4 3 3 3 1 -1 -0 1 2 2 4 4 4 5 6 5 5 6 7 6 4 2 2 1 -0 -1 0 3 8 13 15 12 6 2 1 -0 0 0 -2 -14 -17 -13 -4 -1 -0 -1 -1 2 4 7 10 11 9 6 3 2 2 3 5 6 6 5 4 3 2 1 1 1 1 1 0 1 -0 -1 -1 -1 0 0 0 0 1 1 1 1 1 1 1 1 1 1 1 0 0 0 0
1 -0 -1 0 1 2 3 4 4 3 3 3 1 -1 -0 2 2 3 4 4 4 5 6 5 4 5 7 6 5 4 4 2 -0 -1 -0 2 8 13 14 8 5 5 6 3 3 4 3 -14 -19 -16 -8 -3 -0 -0 -1 0 2 6 10 12 10 8 5 3 3 4 6 7 7 7 5 5 4 3 0 1 1 1 1 1 1 1 -1 -1 -1 0 0 0 0 1 1 1 1 2 2 2 1 1 1 0 0 0 0
2 1 -1 -0 0 0 2 2 2 3 3 3 1 0 0 2 2 3 2 3 4 5 5 4 4 5 6 6 5 5 5 4 1 -1 -1 2 7 12 14 5 4 6 5 3 2 1 -3 -20 -23 -19 -13 -5 -0 0 -1 -1 1 4 9 12 12 9 6 5 5 5 5 7 8 9 9 6 5 4 1 1 0 1 1 2 3 3 1 -1 -1 -1 -0 0 0 1 1 1 1 2 2 2 2 1 1 1 0 0 -0
3 3 1 1 0 -0 -0 1 1 2 4 3 2 1 0 1 2 2 2 3 4 4 5 4 5 6 6 5 5 5 4 5 2 -1 -0 2 7 12 18 9 5 4 3 1 -1 -5 -15 -25 -25 -19 -14 -5 0 1 -2 -2 -0 3 8 11 11 9 6 5 5 4 4 5 6 8 11 7 5 3 2 1 1 1 2 3 4 3 1 -0 -1 -1 -1 -0 -0 0 1 2 2 2 2 2 2 2 1 1 1 0 0
2 2 2 3 2 0 -0 -0 1 2 3 3 2 1 1 2 2 2 2 2 4 5 5 5 6 6 5 5 4 4 3 4 2 0 -0 2 6 12 22 16 10 5 4 3 0 -6 -16 -21 -20 -16 -10 -3 1 2 -1 -1 -0 3 7 11 10 8 4 3 4 4 3 3 4 5 7 5 3 2 1 1 1 2 3 4 4 3 1 -0 -1 -1 -1 -1 -0 -0 1 1 1 2 2 2 2 2 1 1 1 1 0
-1 -0 1 2 2 2 1 0 1 2 3 3 3 2 2 2 2 2 2 2 4 5 5 6 6 6 5 4 4 4 3 3 3 1 0 2 4 9 18 20 16 10 5 4 3 0 -8 -14 -14 -8 -2 0 2 3 2 2 2 3 6 10 10 8 4 3 3 2 2 3 3 3 2 2 2 1 0 0 0 1 3 4 4 3 1 -0 -1 -1 -1 -0 -0 -0 -0 0 1 1 1 1 1 1 1 1 1 1 0
-2 -2 -1 -0 1 1 1 1 1 2 2 3 2 2 2 2 2 2 2 2 3 4 4 5 5 6 5 4 4 4 3 3 3 3 1 2 3 6 13 21 20 14 5 -0 4 7 -1 -11 -8 1 5 4 4 5 6 4 3 2 4 7 8 7 4 3 2 1 1 3 4 4 2 1 1 1 -0 0 0 0 2 3 2 2 1 -0 -1 -1 -1 -0 -0 -0 -0 1 1 1 1 1 1 1 1 1 1 1 1
-2 -2 -3 -2 -2 -1 -1 -0 0 1 2 2 2 1 2 3 3 3 3 3 3 4 4 4 5 6 5 5 5 4 3 4 4 4 3 2 3 7 13 23 23 17 8 -0 2 7 8 -2 1 7 8 5 5 5 5 3 0 -0 2 4 3 1 -1 1 2 2 1 3 4 4 4 3 3 3 2 1 0 0 1 1 1 0 -0 -1 -1 -1 -1 -0 -0 -0 -1 0 0 0 1 1 1 1 1 1 1 1 1
-2 -1 -2 -2 -2 -2 -1 -1 -2 -1 1 2 2 2 2 3 3 3 2 3 3 4 5 4 5 5 5 5 5 4 4 5 4 4 5 3 4 8 14 23 25 21 12 3 -1 3 16 18 13 7 7 6 4 2 1 -2 -4 -4 0 1 -1 -5 -9 -5 -0 3 1 2 3 3 4 4 4 4 4 4 2 1 -0 -0 0 0 -0 -1 -1 -1 -1 -0 -0 -0 -0 0 0 0 1 0 1 1 1 1 1 1 1
-1 -1 -1 -1 -1 -1 -1 -1 -2 -2 -1 0 1 1 2 3 3 3 3 3 3 3 4 4 4 4 5 5 4 4 6 5 4 4 4 4 5 8 13 22 26 24 15 2 -5 -1 17 24 16 6 5 5 3 -0 -2 -5 -8 -8 -0 1 -2 -7 -12 -8 -2 2 1 0 1 3 4 4 4 5 5 4 2 -0 -2 -1 -0 1 1 0 -0 -0 -1 -0 -0 -0 -1 0 0 0 0 -0 0 1 1 1 1 1 0
-0 -0 -1 -0 -0 -0 0 -0 -0 -0 -0 -0 -0 1 2 4 4 3 4 3 3 3 4 4 4 5 6 4 4 5 6 5 4 3 3 5 6 7 9 19 26 26 17 1 -7 -3 13 20 15 7 4 4 1 -0 -1 -4 -9 -10 -1 2 -1 -6 -10 -6 -1 2 0 -1 -1 1 2 3 3 3 3 1 -0 -1 -1 -0 0 0 0 0 0 0 0 0 0 -0 -0 -0 -0 -0 -0 -0 0 0 1 1 1 1 1
-1 -1 -0 -0 -0 0 1 1 2 2 2 1 0 0 2 3 3 3 3 3 3 4 4 5 5 5 5 3 4 4 3 4 4 4 4 4 6 7 9 19 24 24 17 2 -6 -5 8 15 14 10 5 2 -1 -3 -0 -3 -9 -11 -3 1 1 -3 -6 -2 2 3 -0 -2 -1 1 4 2 1 1 0 0 0 0 -0 1 1 0 0 0 -0 -0 0 0 0 0 0 -0 -0 -0 -0 0 0 1 1 1 1 1 1
-2 -1 -0 -0 0 1 1 2 3 4 4 3 2 1 1 1 1 2 2 3 4 4 4 5 5 4 4 4 3 3 2 5 4 3 4 4 5 9 15 23 24 20 13 3 -4 -6 4 14 15 13 9 3 -3 -6 -3 -4 -8 -10 -4 1 3 2 0 3 4 3 -1 -1 1 4 6 4 2 1 1 2 2 1 -0 1 1 0 0 0 0 -0 0 0 0 0 0 -0 -0 0 0 0 0 1 0 1 1 1 1
-4 -3 -2 -1 0 1 1 2 3 4 5 5 4 3 2 2 1 1 2 3 4 4 4 5 5 4 5 5 3 1 0 5 5 4 3 3 5 11 22 25 21 15 9 3 -2 -4 0 10 13 11 8 4 -1 -5 -4 -3 -6 -8 -3 2 4 5 5 6 4 1 -2 1 3 4 4 4 3 3 3 3 3 2 -0 1 1 1 0 0 0 0 0 0 0 -0 -0 -0 -0 0 0 1 1 1 0 1 1 1 1
-4 -4 -3 -2 -0 1 2 2 3 4 4 5 5 5 4 3 2 1 1 2 3 4 4 5 5 4 5 4 3 0 -2 3 7 7 3 3 7 14 24 24 19 11 3 3 1 -0 -2 3 5 4 2 2 0 -4 -7 -4 -5 -6 -2 2 4 6 7 6 3 -1 -4 4 5 4 3 3 3 3 3 2 3 2 0 2 2 2 1 0 0 0 1 1 0 0 -0 -1 -0 0 1 1 1 1 1 1 1 1 0
-5 -4 -2 -2 -0 1 3 3 3 3 3 4 5 5 5 3 1 1 0 2 3 4 5 5 4 4 6 4 1 -1 -3 3 9 10 2 4 9 17 24 21 15 6 -3 0 6 8 3 0 -1 -1 -0 3 1 -3 -10 -6 -5 -4 -2 1 3 5 7 5 1 -3 -5 5 6 4 2 2 2 3 2 2 2 3 2 2 3 3 1 1 0 1 1 1 0 0 -0 -1 -0 0 1 1 1 1 1 1 0 0 0
-6 -4 -3 -1 0 2 4 4 4 3 3 3 3 3 4 2 1 1 2 2 3 4 6 4 5 6 6 4 2 1 -1 4 9 10 4 5 11 18 21 17 11 3 -6 -5 5 14 12 4 -1 -2 1 7 6 1 -8 -7 -5 -3 -4 -1 2 5 6 5 1 -2 -1 4 5 2 -1 0 2 3 2 3 3 3 2 2 4 4 2 1 1 1 1 1 0 0 -0 -0 0 0 1 1 1 1 0 0 0 0 -0
-6 -5 -4 -1 1 3 4 4 4 4 3 1 0 1 3 3 3 2 3 3 3 4 4 4 5 6 4 4 4 3 1 3 7 9 7 6 13 19 20 14 8 2 -4 -8 -1 10 18 8 1 -2 0 6 9 6 -1 -5 -5 -4 -6 -0 5 7 6 2 0 0 5 4 1 -1 -3 -0 2 3 2 3 4 4 2 2 3 3 2 2 1 1 1 0 0 1 0 1 1 1 1 1 1 0 0 0 0 -0 -0
-4 -4 -4 -2 1 4 5 4 4 4 2 0 0 2 6 6 5 3 4 4 4 4 4 4 4 3 3 4 4 4 1 3 5 6 7 8 16 22 20 11 5 2 0 -7 -6 1 16 10 3 -1 -1 3 7 8 3 -2 -5 -6 -9 4 11 10 4 -0 0 4 7 3 -2 -5 -5 -0 3 4 2 4 6 7 4 2 1 2 2 1 1 1 0 -0 0 1 1 1 2 2 1 1 0 0 0 0 0 0 -0
-3 -4 -4 -3 -0 3 5 5 4 3 0 -1 1 4 9 8 5 4 4 4 5 5 5 4 3 2 4 5 5 4 2 3 4 5 4 10 19 24 18 8 2 0 3 -4 -8 -6 8 10 6 2 1 3 5 5 1 -6 -9 -11 -13 7 13 10 1 -2 1 5 5 -1 -5 -6 -5 1 3 4 2 4 8 10 5 2 1 1 -0 -0 1 1 -0 -0 -0 1 2 3 3 2 1 1 0 1 0 0 0 0 0
-3 -4 -4 -4 -2 1 4 5 4 2 -0 -0 1 4 7 5 4 4 3 4 4 5 4 3 3 4 6 6 6 5 4 5 6 5 3 12 20 22 16 9 3 1 3 -0 -5 -6 -0 8 11 10 7 7 7 5 -1 -9 -14 -16 -19 0 7 5 -2 -1 2 5 0 -5 -7 -6 -3 2 4 4 3 3 6 8 5 3 2 1 -0 -1 -0 0 -1 -1 -0 0 1 3 3 2 1 0 0 0 0 0 0 0 0
-4 -4 -5 -5 -4 -1 2 4 4 2 -0 -1 1 2 3 2 2 2 2 3 3 2 0 1 3 4 5 5 5 6 4 6 6 5 4 13 19 19 13 10 7 3 2 1 -1 -2 -3 4 10 14 14 13 12 9 2 -5 -9 -12 -18 -8 -2 -1 -3 1 3 2 -5 -7 -7 -5 -1 3 4 4 3 3 3 4 3 6 5 3 1 0 -0 -1 -1 -1 -1 0 1 2 1 1 0 0 0 0 0 0 0 0 1
-5 -5 -6 -6 -5 -3 1 4 4 3 -0 -1 -1 0 1 0 -0 -0 0 2 2 2 -0 -0 1 4 3 3 5 5 4 4 4 4 5 13 19 19 13 10 8 6 2 2 3 2 -2 -3 3 11 14 13 12 10 5 1 -0 -3 -9 -8 -6 -4 -3 1 0 -4 -8 -8 -5 -2 2 3 3 3 3 3 3 2 1 7 7 4 1 1 0 -0 -1 -1 -1 0 1 1 1 0 -0 -1 -0 0 0 0 0 0 1
-6 -6 -7 -7 -6 -4 -0 3 4 2 0 -1 -1 -1 -0 -1 -1 -1 0 2 3 3 3 1 2 4 4 4 6 6 6 6 8 10 9 14 19 18 11 6 6 6 2 3 5 6 2 -7 -7 -0 11 12 12 12 9 5 4 3 -1 -5 -6 -5 -5 -5 -8 -10 -10 -7 -3 1 3 3 2 2 2 2 2 2 1 5 6 6 5 3 1 0 -0 -1 -0 0 1 1 0 -0 -0 -1 -1 -0 0 0 0 0 1
-7 -7 -7 -7 -7 -5 -2 1 2 1 0 -1 -2 -2 -1 -1 -1 -0 1 4 4 5 5 5 5 4 4 6 7 8 8 10 15 20 21 22 20 15 7 5 6 6 3 3 6 7 6 -4 -14 -15 -0 12 18 19 17 10 6 4 1 -3 -6 -9 -14 -16 -15 -12 -10 -5 -1 3 3 2 2 1 1 1 1 2 5 5 8 10 10 4 1 0 -0 -0 0 1 1 1 0 -0 -1 -1 -0 -0 0 0 0 0 1
-6 -6 -5 -5 -5 -5 -4 -1 0 0 -1 -2 -2 -2 -0 -0 -0 0 3 5 5 4 5 6 6 5 3 5 6 7 8 12 17 23 29 27 21 13 9 8 9 10 9 8 7 8 8 4 -7 -15 -12 8 20 26 25 14 7 3 1 -3 -8 -14 -21 -18 -14 -11 -9 -3 1 3 3 2 2 1 1 1 2 4 7 7 9 10 8 2 -0 0 1 1 0 -0 -0 0 0 -0 -1 -0 -0 -0 -0 0 1 1 1
-4 -4 -3 -2 -3 -4 -4 -2 -1 -1 -2 -2 -2 -1 2 1 -0 0 4 5 5 5 6 4 4 5 4 4 5 6 7 10 15 21 24 20 15 11 11 10 10 12 18 17 13 10 9 7 1 -4 -4 6 13 16 15 9 3 0 -1 -4 -9 -13 -15 -10 -9 -8 -6 -1 2 3 3 2 1 1 2 2 3 5 8 8 7 5 1 -0 -0 1 0 -1 -1 -1 -1 -0 0 0 -0 -0 -0 -0 -0 0 1 1 1
-3 -3 -1 -1 -2 -4 -5 -4 -2 -1 -1 -1 -0 2 3 1 0 1 3 4 5 7 7 6 4 1 1 3 5 6 6 9 14 18 19 12 6 3 4 5 7 11 18 20 18 15 10 7 4 3 7 7 2 -4 -9 -8 -6 -5 -3 -2 -2 -3 -2 -1 -2 -3 -1 1 2 2 2 1 1 1 2 3 3 4 7 9 7 3 -0 1 1 0 -1 -1 -1 -2 -2 -1 0 1 0 0 -0 -1 -1 0 1 1 1
-1 -1 -1 -1 -2 -4 -6 -5 -4 -2 -1 -1 2 4 3 2 1 1 1 2 4 5 6 6 4 1 0 3 5 6 5 7 12 15 13 6 0 -4 -7 -5 0 8 14 15 17 16 14 9 6 7 13 7 -3 -14 -20 -15 -9 -4 1 5 6 5 3 2 1 2 4 3 2 1 0 0 1 2 2 3 3 3 7 10 9 7 5 2 1 -0 -1 -1 -2 -3 -3 -2 -0 1 1 0 -0 -1 -1 0 1 1 1
-0 -0 0 -1 -2 -4 -5 -4 -4 -3 -1 -1 2 5 4 4 2 0 1 3 4 4 4 3 1 1 4 6 8 8 6 8 12 13 9 4 1 -0 -1 -1 1 5 9 12 14 15 14 11 12 14 14 8 -0 -9 -16 -11 -6 -1 5 9 9 6 3 2 3 4 7 6 3 0 -1 -0 1 2 3 3 2 2 4 6 6 6 4 2 1 0 -0 -1 -2 -3 -3 -2 -1 0 0 -0 -0 -0 -0 1 1 1 1
-1 -0 0 -0 -1 -2 -3 -3 -3 -3 -3 -1 3 7 6 5 2 1 1 4 4 4 5 1 -2 -2 6 8 9 8 5 9 13 15 16 8 3 4 10 10 6 1 -2 1 6 9 7 5 13 19 13 6 1 -4 -10 -8 -6 -1 7 9 7 4 3 2 4 6 8 7 4 1 -1 -0 1 2 3 3 2 2 2 2 2 2 2 2 1 0 -0 -1 -2 -2 -2 -1 0 0 -0 -1 -1 -1 -0 1 1 1 1
-1 -0 -0 -1 -1 -2 -1 -2 -2 -3 -5 -2 4 8 7 4 1 0 2 4 5 5 5 2 0 1 4 4 3 2 1 4 8 12 14 5 -0 -1 3 5 3 1 -3 -2 -1 -1 -5 -4 2 9 11 5 1 -1 -3 -7 -7 -4 4 5 4 3 2 2 4 5 7 6 4 2 -0 0 1 3 4 3 2 1 2 3 3 3 4 4 2 0 -1 -1 -1 -1 -0 -0 -0 -0 -1 -1 -1 -1 -0 1 1 1 1
-1 -2 -1 -2 -3 -3 -3 -2 -2 -2 -4 -0 4 7 7 3 0 0 3 4 7 9 5 1 3 5 3 0 -2 -3 -2 1 6 9 8 -0 -4 -5 -8 -4 0 4 8 10 4 -4 -11 -7 -2 2 7 6 4 4 9 1 -4 -4 -0 2 3 2 2 2 3 4 5 5 3 2 0 1 2 3 3 3 2 1 0 2 3 4 4 5 4 2 1 1 1 1 1 1 0 -0 -1 -1 -1 -1 0 1 1 1 1
-2 -2 -2 -4 -4 -4 -3 -3 -3 -3 -2 3 6 7 6 2 1 1 3 4 8 9 1 1 3 5 4 0 -3 -4 -2 2 5 7 5 2 2 3 0 -1 -4 -4 1 1 -1 -3 -3 -2 3 8 8 6 3 2 9 9 3 -2 -1 1 2 1 0 0 2 3 4 4 3 1 -1 0 2 3 3 3 3 2 2 2 2 2 2 3 3 2 1 1 1 1 1 1 0 -0 -0 -1 -1 -0 0 1 1 1 1
-1 -3 -4 -5 -3 1 5 2 -1 -3 -2 1 2 2 0 -1 -0 -0 -0 5 8 7 0 2 3 4 4 0 -3 -4 -2 1 4 5 3 2 6 10 13 7 -5 -16 -20 -23 -18 -8 3 6 6 3 0 4 2 -1 -0 8 5 -0 -2 1 1 0 0 1 2 4 4 3 1 -0 -1 -0 1 2 3 3 3 3 2 2 2 1 1 1 1 1 1 1 1 1 1 1 0 0 -0 -1 -0 0 0 1 1 1 1
1 -2 -4 -3 2 10 22 19 12 5 0 -1 -2 -3 -2 -0 0 -0 -2 10 10 6 1 4 4 3 2 0 -1 -2 -1 -2 0 3 2 4 8 12 13 8 6 6 7 -1 -3 -1 2 9 2 -7 -10 1 3 2 0 7 6 2 -1 1 1 0 0 1 2 2 1 -0 -1 -1 -1 -0 0 1 1 2 3 3 3 2 1 1 1 1 1 1 1 1 1 1 1 1 1 -0 -1 -0 -0 0 1 1 1 1 1
1 -0 -2 -1 4 12 17 25 24 17 7 2 -0 -1 -2 -1 -1 -1 5 17 12 3 2 5 4 2 0 -1 -2 -2 -3 -5 -4 -2 1 7 10 8 1 -3 0 7 16 18 17 12 5 1 -4 -7 -5 -1 0 0 1 5 3 -0 -2 -0 0 0 -0 -0 -1 -3 -6 -4 -2 -1 -0 -0 -0 0 0 1 3 3 3 2 1 1 1 1 1 1 1 1 1 1 1 1 0 -0 -1 -0 0 0 1 1 1 0 0
2 2 0 -1 4 11 14 21 26 25 14 9 6 4 -1 -5 -6 0 19 16 8 1 3 2 2 1 0 -3 -5 -6 -6 -6 -4 -2 -0 3 2 -1 -6 -5 -3 0 4 5 6 8 9 4 0 -1 1 -3 -6 -8 -5 -2 -2 -3 -3 0 1 -0 -2 -3 -5 -7 -9 -5 -2 -0 0 0 0 -0 -0 1 3 3 3 2 1 1 1 1 2 2 2 2 2 1 1 1 0 -0 -0 -0 0 0 1 1 1 0 0
2 2 2 0 2 6 12 12 14 14 11 10 9 6 0 -7 -4 6 20 7 6 9 11 4 2 1 0 -2 -4 -5 -6 -6 -4 -2 -1 -2 -6 -9 -8 -5 -2 -1 -0 -1 -0 3 8 14 15 13 10 8 5 0 -6 -8 -6 -3 1 1 0 -2 -4 -4 -6 -6 -7 -3 -0 1 1 1 1 1 1 2 3 3 3 2 2 1 1 2 2 2 2 2 2 1 1 1 0 -0 0 1 0 0 1 1 1 0 -0
Height
3085 3086 3087 3088 3089 3089 3090 3091 3092 3092 3094 3094 3095 3096 3097 3098 3099 3100 3101 3102 3103 3104 3105 3106 3106 3107 3108 3109 3109 3110 3111 3112 3113 3114 3114 3114 3115 3116 3117 3118 3119 3120 3121 3122 3123 3124 3125 3126 3126 3127 3128 3129 3130 3131 3132 3132 3133 3134 3134 3135 3135 3136 3136 3137 3138 3138 3139 3139 3139 3140 3140 3140 3140 3140 3140 3141 3141 3141 3141 3141 3142 3142 3142 3143 3143 3143 3143 3144 3144 3144 3145 3145 3146 3146 3146 3147 3147 3147 3148 3148 3148 3149 3149
3082 3083 3084 3084 3086 3087 3088 3089 3089 3090 3091 3092 3093 3094 3094 3095 3097 3098 3099 3100 3101 3102 3103 3104 3104 3105 3105 3106 3107 3108 3109 3110 3111 3112 3112 3112 3113 3114 3115 3116 3118 3119 3120 3120 3121 3122 3123 3124 3125 3126 3127 3128 3129 3130 3130 3131 3132 3132 3133 3134 3134 3134 3135 3136 3136 3137 3137 3138 3138 3139 3139 3139 3139 3139 3140 3140 3140 3140 3140 3140 3141 3141 3141 3142 3142 3142 3142 3143 3144 3144 3144 3145 3145 3145 3146 3146 3146 3147 3147 3147 3148 3148 3148
3079 3079 3080 3081 3083 3084 3085 3086 3087 3087 3088 3089 3090 3091 3092 3093 3094 3095 3096 3098 3099 3100 3101 3102 3103 3103 3104 3104 3105 3106 3107 3108 3110 3111 3111 3111 3112 3113 3114 3115 3116 3118 3118 3119 3120 3121 3122 3123 3124 3124 3126 3127 3128 3128 3129 3130 3130 3131 3132 3132 3133 3133 3134 3134 3135 3135 3136 3136 3137 3138 3138 3138 3138 3139 3139 3139 3139 3139 3139 3139 3139 3140 3140 3141 3141 3141 3141 3142 3143 3143 3144 3144 3144 3145 3145 3145 3146 3146 3146 3147 3147 3147 3148
3076 3076 3077 3078 3079 3080 3082 3083 3084 3085 3086 3086 3087 3088 3089 3090 3092 3093 3094 3095 3096 3098 3099 3100 3100 3101 3102 3103 3104 3104 3105 3106 3108 3109 3109 3109 3110 3111 3112 3114 3115 3116 3117 3117 3118 3119 3120 3121 3122 3123 3124 3125 3126 3127 3128 3129 3129 3130 3130 3131 3131 3132 3132 3133 3134 3134 3135 3135 3136 3136 3137 3137 3137 3138 3138 3138 3138 3138 3138 3138 3139 3139 3139 3139 3140 3140 3140 3141 3142 3142 3143 3143 3144 3144 3144 3145 3145 3145 3146 3146 3146 3147 3147
3072 3073 3074 3075 3076 3077 3078 3079 3081 3082 3083 3084 3085 3086 3087 3088 3089 3090 3091 3093 3094 3095 3097 3098 3099 3099 3101 3101 3102 3102 3104 3104 3105 3106 3107 3107 3108 3109 3111 3112 3114 3115 3115 3116 3117 3118 3119 3119 3120 3122 3123 3124 3125 3126 3126 3127 3128 3129 3129 3130 3130 3130 3131 3132 3132 3133 3134 3134 3134 3135 3136 3136 3137 3137 3137 3137 3137 3137 3137 3137 3138 3138 3138 3139 3139 3139 3139 3139 3140 3141 3142 3142 3143 3143 3144 3144 3144 3145 3145 3145 3146 3146 3146
3069 3069 3070 3072 3073 3074 3075 3076 3077 3079 3080 3081 3082 3083 3084 3085 3086 3088 3089 3090 3092 3093 3094 3096 3097 3098 3099 3099 3100 3100 3102 3103 3104 3104 3105 3106 3107 3108 3109 3110 3112 3113 3114 3114 3115 3116 3117 3118 3119 3120 3121 3123 3124 3124 3125 3126 3126 3127 3128 3129 3129 3129 3130 3130 3131 3132 3132 3133 3133 3134 3135 3135 3136 3136 3136 3136 3136 3136 3136 3136 3137 3137 3137 3137 3138 3138 3139 3139 3140 3140 3141 3142 3142 3143 3143 3143 3144 3144 3144 3144 3145 3145 3145
3065 3066 3067 3068 3069 3070 3071 3073 3074 3075 3077 3078 3079 3080 3081 3082 3083 3084 3086 3087 3089 3090 3092 3093 3094 3095 3096 3097 3098 3098 3099 3100 3102 3103 3103 3104 3105 3106 3107 3107 3109 3111 3112 3112 3113 3114 3115 3116 3118 3119 3120 3121 3122 3123 3124 3124 3125 3126 3127 3127 3128 3128 3129 3129 3130 3130 3131 3132 3132 3133 3134 3134 3135 3135 3135 3135 3135 3135 3135 3135 3136 3136 3136 3136 3137 3137 3138 3139 3139 3139 3140 3141 3141 3142 3142 3142 3143 3143 3144 3144 3144 3144 3145
3062 3063 3064 3064 3065 3067 3068 3069 3070 3072 3073 3075 3076 3077 3078 3079 3080 3082 3083 3084 3086 3088 3089 3091 3092 3093 3094 3095 3096 3096 3097 3098 3100 3101 3102 3102 3103 3104 3104 3105 3106 3108 3110 3110 3110 3112 3114 3115 3116 3117 3119 3120 3121 3122 3122 3123 3124 3125 3126 3126 3126 3127 3127 3128 3128 3129 3130 3130 3131 3132 3132 3133 3133 3134 3134 3134 3134 3134 3134 3134 3135 3135 3135 3136 3136 3137 3137 3138 3138 3139 3139 3140 3140 3141 3141 3142 3142 3142 3143 3143 3144 3144 3144
3059 3060 3060 3061 3062 3063 3064 3065 3067 3068 3070 3071 3073 3074 3075 3076 3077 3079 3080 3082 3083 3085 3086 3088 3090 3091 3092 3093 3094 3094 3094 3096 3098 3099 3099 3100 3101 3101 3102 3103 3104 3106 3109 3108 3108 3110 3112 3113 3114 3115 3117 3118 3119 3120 3121 3122 3122 3124 3124 3125 3125 3125 3126 3127 3127 3128 3128 3129 3130 3130 3131 3131 3132 3133 3133 3134 3134 3133 3134 3134 3134 3134 3134 3135 3135 3135 3136 3137 3137 3138 3138 3139 3139 3140 3140 3141 3141 3142 3142 3142 3143 3143 3143
3055 3056 3057 3058 3059 3059 3061 3062 3063 3064 3066 3068 3069 3071 3072 3074 3074 3076 3077 3079 3080 3082 3084 3085 3087 3088 3089 3090 3091 3092 3092 3094 3096 3097 3098 3098 3099 3099 3100 3101 3103 3104 3106 3104 3105 3108 3109 3111 3113 3114 3115 3116 3118 3119 3119 3120 3121 3122 3123 3123 3124 3124 3125 3125 3126 3126 3127 3128 3128 3129 3130 3130 3131 3131 3132 3132 3132 3133 3133 3133 3133 3133 3134 3134 3134 3134 3135 3136 3136 3137 3137 3138 3139 3139 3139 3140 3140 3141 3141 3142 3142 3142 3143
3051 3053 3054 3055 3055 3056 3057 3058 3059 3061 3062 3064 3066 3067 3069 3070 3072 3073 3074 3076 3077 3079 3081 3082 3084 3085 3086 3087 3089 3089 3090 3091 3093 3095 3096 3096 3096 3097 3099 3100 3101 3102 3104 3102 3103 3106 3108 3109 3110 3112 3113 3114 3116 3117 3118 3119 3120 3121 3122 3122 3122 3123 3124 3124 3124 3125 3126 3126 3127 3128 3129 3129 3130 3130 3131 3131 3131 3132 3132 3132 3132 3132 3133 3133 3133 3134 3134 3135 3135 3136 3136 3137 3138 3138 3139 3139 3139 3140 3140 3141 3141 3141 3142
3048 3049 3050 3051 3052 3053 3054 3055 3056 3057 3059 3060 3062 3064 3065 3067 3069 3070 3071 3073 3074 3076 3077 3079 3081 3082 3083 3084 3086 3087 3088 3089 3091 3093 3094 3094 3094 3095 3097 3099 3099 3100 3102 3101 3101 3104 3105 3107 3108 3110 3111 3113 3114 3115 3116 3117 3118 3119 3120 3121 3121 3122 3122 3123 3123 3124 3124 3125 3125 3126 3127 3128 3129 3129 3129 3130 3130 3130 3131 3131 3131 3131 3132 3132 3132 3133 3133 3134 3134 3135 3135 3136 3136 3137 3137 3138 3139 3139 3139 3140 3140 3140 3141
3044 3045 3046 3047 3048 3049 3050 3051 3052 3054 3055 3056 3058 3059 3061 3063 3065 3067 3068 3070 3071 3073 3074 3076 3078 3079 3080 3082 3083 3085 3086 3087 3088 3090 3091 3092 3092 3093 3095 3097 3098 3099 3100 3099 3099 3102 3103 3104 3106 3108 3109 3110 3112 3113 3114 3116 3117 3118 3119 3119 3120 3120 3121 3121 3122 3122 3123 3123 3124 3124 3125 3126 3127 3128 3128 3129 3129 3129 3129 3130 3130 3130 3131 3131 3131 3132 3132 3133 3133 3134 3134 3135 3135 3136 3136 3137 3138 3138 3139 3139 3139 3140 3140
3040 3041 3042 3043 3044 3045 3047 3048 3049 3050 3051 3052 3054 3055 3057 3059 3061 3063 3065 3066 3068 3069 3071 3073 3074 3076 3078 3079 3080 3082 3084 3085 3086 3088 3089 3090 3090 3091 3093 3095 3096 3097 3098 3097 3098 3099 3100 3102 3104 3105 3107 3108 3110 3111 3113 3114 3115 3117 3117 3118 3118 3119 3119 3120 3120 3120 3121 3122 3122 3123 3123 3124 3125 3126 3127 3128 3128 3128 3128 3129 3129 3129 3129 3130 3130 3131 3131 3132 3132 3133 3134 3134 3134 3135 3135 3136 3137 3137 3138 3138 3139 3139 3139
3037 3037 3038 3039 3040 3041 3043 3044 3045 3046 3047 3048 3050 3051 3053 3055 3057 3059 3061 3063 3064 3066 3068 3069 3071 3073 3074 3076 3078 3079 3082 3083 3084 3086 3086 3087 3088 3088 3090 3092 3094 3095 3096 3095 3095 3096 3098 3099 3101 3103 3105 3106 3108 3109 3111 3113 3114 3115 3116 3116 3117 3117 3118 3119 3119 3120 3120 3121 3121 3121 3121 3122 3123 3124 3126 3127 3127 3127 3127 3127 3128 3128 3129 3129 3129 3130 3130 3131 3131 3132 3133 3133 3134 3134 3134 3135 3136 3136 3137 3137 3138 3138 3138
3033 3034 3034 3035 3036 3038 3039 3040 3041 3042 3044 3045 3046 3048 3049 3051 3053 3055 3058 3059 3061 3063 3064 3067 3068 3070 3071 3074 3075 3077 3079 3081 3082 3083 3084 3085 3085 3086 3088 3089 3091 3094 3094 3092 3092 3094 3095 3098 3099 3101 3103 3104 3106 3107 3109 3111 3112 3114 3114 3115 3115 3116 3117 3117 3118 3118 3119 3120 3120 3120 3120 3121 3121 3122 3124 3125 3126 3126 3126 3126 3126 3127 3127 3128 3128 3129 3129 3130 3130 3131 3132 3132 3133 3133 3134 3134 3134 3135 3136 3136 3137 3137 3137
3029 3030 3030 3031 3032 3034 3035 3036 3037 3039 3040 3041 3043 3044 3046 3047 3049 3052 3054 3056 3058 3059 3061 3064 3065 3067 3069 3070 3072 3074 3076 3078 3079 3081 3081 3082 3084 3085 3086 3087 3089 3091 3091 3089 3089 3091 3093 3095 3098 3099 3101 3102 3104 3106 3108 3109 3111 3112 3112 3113 3114 3115 3115 3115 3116 3116 3117 3118 3119 3119 3120 3120 3120 3121 3122 3123 3124 3124 3124 3125 3125 3125 3126 3126 3127 3128 3128 3129 3129 3130 3130 3131 3131 3132 3133 3133 3134 3134 3134 3135 3135 3136 3136
3026 3026 3027 3028 3029 3030 3031 3032 3033 3034 3036 3037 3038 3040 3042 3044 3045 3048 3050 3052 3054 3056 3058 3060 3063 3064 3066 3068 3069 3071 3073 3074 3077 3078 3079 3080 3081 3083 3084 3086 3087 3088 3088 3086 3086 3088 3091 3094 3096 3097 3099 3101 3103 3104 3106 3108 3109 3110 3111 3112 3113 3113 3114 3114 3115 3115 3115 3116 3117 3118 3119 3119 3119 3119 3120 3121 3122 3123 3123 3124 3124 3124 3125 3125 3126 3126 3127 3128 3128 3129 3129 3130 3130 3131 3131 3132 3133 3133 3134 3134 3134 3135 3135
3022 3023 3023 3024 3025 3026 3027 3028 3029 3031 3032 3033 3034 3035 3037 3039 3041 3043 3046 3048 3050 3053 3055 3057 3059 3061 3063 3065 3066 3068 3070 3072 3074 3075 3077 3078 3079 3081 3083 3084 3084 3085 3084 3084 3084 3086 3089 3091 3094 3095 3097 3099 3101 3103 3105 3107 3108 3108 3109 3110 3111 3112 3113 3114 3114 3115 3116 3115 3115 3116 3117 3117 3117 3118 3119 3119 3120 3121 3122 3122 3123 3123 3124 3124 3124 3125 3126 3126 3127 3128 3128 3129 3129 3130 3130 3131 3131 3132 3132 3133 3134 3134 3134
3019 3019 3020 3021 3022 3023 3024 3025 3026 3027 3028 3029 3030 3031 3033 3035 3037 3039 3041 3044 3046 3049 3051 3053 3056 3058 3060 3062 3064 3065 3067 3069 3071 3073 3074 3075 3077 3079 3080 3081 3082 3082 3082 3081 3082 3083 3086 3088 3090 3093 3095 3098 3100 3102 3104 3105 3106 3107 3108 3109 3109 3111 3112 3113 3113 3114 3115 3115 3115 3115 3115 3115 3116 3116 3117 3118 3119 3120 3120 3121 3122 3122 3123 3123 3123 3124 3124 3125 3126 3127 3127 3127 3128 3129 3129 3130 3130 3131 3131 3132 3132 3133 3133
3016 3016 3017 3017 3018 3019 3020 3021 3022 3024 3024 3025 3026 3027 3029 3030 3032 3034 3037 3039 3042 3044 3047 3050 3052 3055 3057 3059 3061 3063 3065 3067 3069 3070 3071 3073 3074 3076 3077 3078 3079 3079 3079 3079 3079 3080 3082 3084 3086 3089 3093 3096 3099 3100 3102 3104 3105 3105 3106 3107 3108 3109 3110 3111 3112 3113 3114 3114 3114 3114 3114 3114 3114 3115 3116 3117 3118 3119 3119 3120 3120 3121 3121 3122 3122 3123 3123 3124 3125 3125 3126 3126 3127 3128 3128 3129 3129 3130 3130 3131 3131 3132 3132
3013 3013 3014 3014 3015 3016 3017 3018 3019 3020 3021 3022 3023 3024 3025 3027 3029 3030 3033 3035 3038 3041 3044 3046 3049 3052 3054 3057 3059 3061 3063 3065 3067 3068 3069 3071 3072 3074 3075 3075 3076 3076 3077 3076 3077 3078 3079 3079 3082 3086 3092 3095 3097 3099 3101 3102 3103 3104 3105 3106 3107 3108 3109 3110 3111 3112 3113 3113 3113 3113 3113 3113 3114 3114 3115 3116 3116 3117 3118 3119 3119 3120 3120 3121 3121 3122 3122 3123 3124 3124 3125 3125 3126 3126 3127 3128 3128 3129 3129 3129 3130 3130 3131
3009 3010 3011 3011 3012 3013 3014 3015 3016 3017 3018 3019 3019 3020 3021 3023 3025 3027 3029 3031 3034 3037 3040 3043 3045 3048 3051 3054 3055 3058 3060 3063 3064 3066 3067 3069 3070 3071 3072 3072 3073 3074 3073 3073 3074 3074 3075 3076 3079 3084 3089 3093 3095 3097 3099 3100 3102 3103 3103 3104 3105 3107 3108 3109 3110 3111 3112 3112 3113 3113 3113 3113 3113 3114 3114 3115 3116 3116 3117 3118 3118 3119 3119 3119 3120 3120 3121 3122 3122 3123 3124 3124 3124 3125 3126 3126 3127 3127 3128 3128 3129 3129 3129
3005 3006 3007 3008 3009 3009 3010 3011 3012 3014 3014 3015 3016 3017 3018 3019 3021 3023 3025 3027 3030 3033 3036 3039 3041 3044 3047 3050 3052 3054 3057 3060 3062 3063 3065 3066 3068 3069 3069 3069 3070 3071 3071 3071 3071 3072 3073 3074 3078 3082 3087 3090 3093 3095 3097 3099 3100 3101 3102 3103 3104 3105 3107 3108 3109 3110 3111 3112 3112 3112 3112 3113 3113 3113 3114 3114 3115 3115 3116 3117 3117 3118 3118 3118 3119 3119 3120 3120 3121 3122 3122 3123 3124 3124 3125 3125 3126 3126 3127 3127 3128 3128 3128
3001 3002 3003 3004 3005 3006 3007 3008 3009 3010 3011 3012 3013 3014 3015 3016 3018 3019 3021 3024 3026 3029 3031 3034 3037 3040 3043 3046 3049 3051 3054 3057 3059 3061 3063 3064 3066 3067 3066 3067 3068 3069 3069 3069 3069 3070 3072 3074 3076 3079 3084 3088 3091 3093 3095 3096 3098 3099 3100 3102 3103 3104 3106 3107 3108 3109 3110 3111 3111 3112 3112 3112 3112 3112 3113 3113 3114 3114 3115 3116 3116 3117 3117 3117 3118 3118 3119 3119 3120 3120 3121 3122 3123 3123 3124 3124 3125 3125 3126 3126 3126 3127 3127
2997 2998 2999 3000 3001 3003 3004 3004 3005 3006 3008 3009 3010 3010 3012 3013 3014 3016 3018 3020 3022 3025 3027 3030 3033 3036 3039 3042 3045 3048 3050 3054 3056 3058 3060 3062 3064 3065 3064 3064 3065 3066 3067 3067 3067 3068 3070 3072 3074 3076 3080 3085 3088 3091 3093 3094 3096 3098 3099 3100 3101 3103 3104 3106 3107 3108 3109 3109 3110 3111 3111 3112 3111 3111 3112 3112 3112 3113 3114 3115 3115 3116 3116 3116 3116 3117 3118 3118 3119 3119 3120 3121 3122 3122 3123 3123 3124 3124 3124 3125 3125 3126 3126
2993 2994 2994 2996 2997 2998 2999 3000 3002 3003 3004 3005 3006 3007 3009 3010 3011 3013 3014 3017 3019 3021 3024 3026 3029 3032 3035 3038 3041 3044 3046 3050 3053 3055 3058 3060 3061 3063 3063 3063 3064 3064 3065 3066 3065 3065 3068 3069 3070 3073 3077 3082 3086 3089 3090 3092 3094 3096 3097 3099 3099 3101 3103 3104 3105 3106 3107 3107 3108 3109 3109 3109 3109 3110 3110 3111 3111 3112 3113 3114 3114 3115 3115 3115 3115 3116 3117 3117 3118 3118 3119 3120 3121 3121 3122 3122 3123 3123 3124 3124 3124 3124 3125
2990 2990 2991 2992 2993 2994 2995 2996 2998 2999 3000 3001 3003 3004 3005 3006 3008 3009 3011 3013 3015 3018 3020 3023 3025 3028 3031 3034 3038 3041 3044 3046 3049 3052 3054 3057 3059 3060 3062 3062 3063 3063 3064 3064 3064 3063 3065 3066 3068 3070 3075 3080 3083 3086 3088 3090 3092 3094 3096 3097 3098 3099 3101 3103 3104 3104 3105 3106 3106 3107 3107 3108 3108 3108 3109 3109 3110 3111 3111 3112 3113 3114 3114 3114 3114 3115 3115 3116 3117 3117 3118 3119 3119 3120 3120 3121 3121 3122 3122 3123 3123 3123 3124
2987 2987 2988 2988 2989 2990 2991 2992 2994 2995 2996 2998 2999 3000 3002 3003 3005 3006 3008 3010 3012 3014 3017 3019 3022 3025 3028 3031 3034 3037 3040 3043 3046 3049 3051 3054 3056 3058 3059 3061 3061 3061 3062 3063 3063 3063 3063 3065 3067 3071 3075 3078 3081 3083 3085 3087 3089 3091 3094 3095 3096 3097 3099 3101 3102 3103 3104 3104 3105 3105 3106 3106 3107 3107 3108 3108 3109 3109 3110 3111 3112 3112 3113 3113 3113 3114 3115 3115 3116 3116 3117 3118 3118 3119 3119 3120 3120 3121 3121 3122 3122 3122 3122
2984 2984 2984 2985 2986 2987 2988 2989 2990 2991 2992 2994 2995 2996 2998 2999 3001 3003 3005 3007 3009 3011 3014 3016 3019 3021 3024 3027 3030 3034 3037 3040 3043 3046 3049 3051 3054 3056 3057 3059 3059 3059 3060 3060 3060 3061 3062 3064 3066 3070 3073 3076 3078 3079 3081 3083 3086 3089 3091 3092 3093 3095 3097 3099 3101 3102 3102 3103 3104 3104 3105 3106 3106 3106 3106 3107 3108 3108 3109 3110 3110 3111 3111 3112 3112 3113 3114 3114 3115 3116 3116 3116 3117 3118 3119 3119 3119 3120 3120 3120 3121 3121 3121
2980 2981 2981 2981 2982 2983 2984 2985 2986 2987 2989 2990 2991 2992 2994 2996 2998 2999 3001 3003 3005 3008 3010 3013 3015 3018 3021 3024 3027 3030 3034 3037 3040 3043 3046 3048 3051 3053 3055 3056 3056 3056 3056 3057 3058 3060 3062 3062 3064 3068 3070 3073 3074 3075 3077 3079 3082 3085 3088 3089 3091 3093 3095 3098 3099 3100 3101 3102 3102 3103 3104 3104 3105 3105 3106 3106 3107 3107 3107 3108 3109 3109 3110 3111 3111 3112 3113 3114 3114 3114 3115 3116 3116 3117 3117 3118 3118 3119 3119 3119 3119 3120 3120
2977 2977 2977 2977 2978 2979 2980 2981 2982 2984 2985 2986 2987 2988 2990 2992 2994 2995 2998 3000 3002 3004 3007 3009 3012 3015 3018 3021 3024 3027 3030 3034 3037 3039 3043 3045 3048 3050 3053 3054 3054 3054 3053 3053 3055 3058 3061 3061 3062 3065 3068 3070 3071 3071 3073 3074 3077 3081 3085 3088 3089 3091 3093 3096 3098 3099 3099 3100 3101 3102 3103 3103 3104 3104 3105 3105 3105 3105 3106 3107 3107 3108 3109 3110 3110 3111 3112 3113 3113 3114 3114 3115 3115 3116 3116 3117 3117 3117 3118 3118 3118 3119 3119
2973 2973 2973 2974 2974 2975 2975 2977 2978 2979 2981 2982 2983 2984 2986 2988 2990 2992 2994 2996 2999 3001 3004 3006 3009 3012 3015 3018 3020 3024 3027 3030 3033 3036 3039 3042 3045 3047 3050 3052 3053 3052 3051 3050 3052 3056 3059 3058 3059 3062 3065 3067 3068 3069 3070 3071 3074 3078 3083 3086 3088 3089 3092 3094 3096 3098 3098 3099 3099 3100 3101 3102 3103 3103 3103 3103 3104 3104 3105 3105 3106 3107 3108 3109 3109 3110 3111 3111 3112 3113 3113 3114 3114 3115 3115 3115 3116 3116 3116 3117 3117 3117 3118
2969 2969 2969 2969 2970 2971 2972 2973 2974 2975 2977 2978 2979 2981 2983 2984 2986 2988 2990 2993 2995 2998 3000 3003 3005 3008 3011 3014 3018 3021 3024 3027 3030 3033 3035 3038 3041 3044 3047 3049 3049 3049 3048 3048 3049 3053 3056 3055 3056 3059 3062 3063 3065 3067 3069 3070 3072 3076 3081 3084 3086 3088 3090 3093 3095 3095 3096 3097 3098 3099 3100 3101 3101 3101 3101 3102 3103 3103 3104 3104 3105 3106 3107 3108 3108 3109 3109 3110 3111 3111 3112 3112 3113 3114 3114 3114 3114 3115 3115 3115 3116 3116 3116
2965 2965 2965 2966 2966 2967 2968 2969 2969 2971 2972 2974 2975 2977 2979 2980 2982 2984 2987 2989 2992 2995 2997 3000 3002 3005 3008 3011 3014 3018 3021 3024 3027 3030 3032 3035 3038 3041 3044 3045 3046 3046 3045 3045 3047 3050 3053 3054 3054 3056 3059 3061 3063 3066 3069 3070 3072 3075 3079 3082 3084 3087 3089 3091 3093 3094 3094 3095 3096 3097 3099 3099 3100 3100 3100 3101 3101 3102 3103 3103 3104 3105 3106 3106 3107 3108 3108 3109 3110 3110 3111 3111 3112 3112 3113 3113 3113 3114 3114 3114 3114 3115 3115
2962 2962 2962 2962 2963 2963 2964 2965 2966 2967 2968 2969 2971 2973 2974 2976 2978 2980 2983 2986 2989 2992 2994 2997 2999 3002 3005 3009 3011 3014 3017 3021 3024 3027 3029 3032 3035 3038 3041 3042 3043 3043 3043 3043 3045 3049 3050 3052 3054 3055 3057 3060 3063 3066 3069 3070 3072 3074 3077 3080 3083 3085 3087 3089 3090 3091 3092 3094 3095 3096 3097 3099 3099 3099 3099 3100 3100 3101 3102 3102 3103 3104 3104 3105 3106 3107 3107 3108 3109 3109 3110 3110 3111 3111 3112 3112 3112 3112 3113 3113 3113 3114 3114
2959 2959 2959 2959 2959 2960 2961 2961 2962 2963 2964 2965 2966 2968 2970 2972 2974 2977 2979 2982 2985 2988 2991 2994 2996 2999 3002 3005 3008 3011 3014 3017 3021 3024 3026 3029 3032 3035 3038 3039 3039 3040 3040 3041 3044 3047 3049 3051 3053 3054 3056 3058 3061 3064 3067 3069 3071 3073 3075 3078 3080 3083 3085 3087 3088 3089 3090 3092 3093 3095 3096 3097 3098 3098 3099 3099 3099 3100 3100 3101 3102 3103 3103 3104 3104 3105 3106 3107 3108 3108 3109 3109 3109 3110 3110 3111 3111 3111 3112 3112 3112 3112 3113
2955 2955 2955 2955 2956 2956 2957 2958 2959 2959 2960 2961 2963 2964 2966 2968 2970 2973 2975 2979 2982 2985 2988 2991 2993 2996 2999 3002 3005 3008 3011 3014 3018 3020 3023 3026 3029 3032 3033 3035 3036 3037 3038 3039 3041 3045 3048 3050 3051 3053 3054 3057 3059 3062 3065 3068 3069 3071 3074 3076 3079 3081 3083 3084 3086 3087 3088 3090 3092 3093 3095 3096 3096 3097 3097 3097 3098 3099 3099 3100 3101 3101 3102 3103 3104 3104 3105 3106 3107 3107 3107 3108 3108 3109 3109 3109 3110 3110 3110 3110 3111 3111 3111
2951 2951 2951 2951 2952 2952 2953 2954 2954 2955 2956 2957 2958 2960 2961 2963 2965 2968 2971 2975 2978 2982 2985 2988 2990 2994 2996 2999 3002 3005 3009 3012 3015 3018 3020 3024 3027 3029 3030 3032 3033 3034 3036 3037 3039 3042 3045 3048 3049 3051 3053 3056 3058 3060 3063 3066 3068 3070 3072 3074 3076 3079 3080 3082 3084 3085 3086 3088 3090 3091 3093 3094 3095 3095 3095 3096 3097 3097 3098 3099 3099 3100 3101 3101 3102 3103 3104 3105 3105 3106 3106 3107 3107 3108 3108 3108 3108 3109 3109 3109 3109 3110 3110
2947 2947 2947 2947 2948 2948 2949 2950 2951 2952 2953 2954 2954 2955 2957 2959 2962 2964 2967 2971 2974 2978 2982 2984 2988 2991 2994 2996 2999 3003 3006 3009 3013 3015 3018 3021 3024 3026 3028 3029 3029 3032 3035 3037 3038 3039 3043 3045 3048 3050 3052 3054 3057 3059 3062 3064 3066 3068 3070 3072 3074 3076 3078 3080 3082 3083 3084 3086 3088 3090 3091 3093 3093 3094 3094 3094 3095 3096 3096 3097 3098 3099 3099 3100 3101 3102 3103 3104 3104 3105 3105 3106 3106 3106 3107 3107 3107 3107 3108 3108 3108 3109 3109
2943 2943 2943 2944 2944 2944 2945 2946 2947 2948 2949 2950 2951 2952 2954 2956 2958 2960 2963 2967 2971 2974 2978 2982 2985 2988 2991 2994 2997 3000 3004 3007 3010 3013 3016 3019 3022 3024 3025 3025 3026 3029 3033 3037 3037 3037 3040 3043 3045 3048 3050 3053 3056 3058 3060 3062 3063 3065 3067 3069 3071 3074 3075 3077 3079 3081 3083 3084 3086 3088 3090 3091 3092 3092 3093 3093 3094 3094 3095 3096 3096 3097 3098 3099 3099 3100 3101 3102 3103 3104 3104 3104 3105 3105 3105 3105 3106 3106 3106 3107 3107 3107 3108
2939 2940 2940 2940 2940 2940 2941 2942 2942 2943 2944 2946 2947 2949 2952 2953 2955 2957 2960 2963 2967 2972 2975 2978 2982 2985 2988 2992 2995 2998 3001 3004 3008 3011 3014 3017 3019 3021 3022 3022 3024 3028 3031 3035 3036 3036 3038 3040 3043 3046 3048 3051 3054 3056 3059 3060 3061 3062 3064 3067 3069 3071 3072 3075 3077 3079 3080 3083 3085 3087 3089 3090 3090 3091 3091 3092 3093 3093 3093 3094 3095 3095 3096 3097 3098 3099 3099 3100 3101 3102 3103 3104 3104 3104 3104 3104 3104 3105 3105 3105 3106 3106 3106
2937 2937 2937 2937 2937 2937 2937 2938 2938 2939 2941 2942 2943 2945 2948 2950 2952 2954 2956 2959 2964 2968 2972 2975 2979 2982 2986 2989 2992 2995 2999 3002 3005 3009 3012 3015 3017 3018 3019 3019 3022 3026 3030 3033 3036 3037 3037 3039 3041 3044 3046 3049 3051 3053 3056 3058 3059 3061 3062 3065 3067 3068 3070 3072 3074 3076 3079 3081 3083 3085 3087 3088 3089 3089 3089 3090 3091 3092 3092 3093 3093 3094 3094 3095 3096 3097 3098 3099 3100 3101 3101 3102 3103 3103 3103 3103 3103 3104 3104 3104 3104 3105 3105
2934 2934 2934 2934 2934 2934 2934 2934 2934 2935 2937 2938 2940 2942 2944 2946 2948 2951 2953 2955 2959 2963 2968 2972 2975 2979 2983 2986 2989 2993 2997 3000 3003 3006 3009 3012 3014 3014 3015 3016 3020 3024 3027 3031 3034 3036 3036 3037 3039 3042 3044 3046 3049 3051 3053 3055 3057 3059 3060 3062 3064 3065 3067 3069 3071 3074 3077 3079 3081 3084 3085 3087 3087 3088 3088 3089 3089 3090 3091 3092 3092 3093 3093 3094 3095 3095 3096 3097 3099 3099 3100 3101 3101 3101 3101 3102 3102 3102 3102 3103 3103 3104 3104
2932 2932 2932 2932 2932 2932 2931 2931 2931 2932 2933 2935 2937 2939 2940 2942 2944 2947 2949 2952 2955 2959 2964 2968 2972 2976 2980 2984 2987 2990 2994 2998 3001 3004 3008 3009 3010 3010 3012 3014 3018 3021 3025 3029 3032 3034 3035 3035 3037 3040 3042 3044 3046 3049 3050 3052 3054 3057 3059 3060 3061 3063 3064 3067 3069 3072 3075 3077 3080 3082 3084 3084 3085 3086 3086 3087 3088 3088 3089 3090 3091 3092 3092 3093 3094 3094 3095 3096 3097 3098 3099 3099 3100 3100 3100 3100 3101 3101 3101 3101 3102 3102 3102
2930 2929 2929 2929 2929 2929 2929 2929 2929 2929 2930 2932 2934 2936 2938 2939 2941 2944 2946 2949 2952 2956 2960 2965 2969 2974 2977 2981 2985 2988 2992 2996 2999 3003 3006 3007 3007 3008 3011 3014 3017 3019 3023 3026 3029 3032 3033 3034 3036 3038 3040 3042 3044 3046 3048 3049 3052 3054 3057 3058 3059 3060 3062 3065 3068 3070 3073 3076 3078 3080 3082 3082 3083 3084 3084 3085 3086 3087 3088 3089 3090 3091 3092 3092 3093 3093 3094 3094 3095 3096 3097 3098 3098 3099 3099 3099 3099 3100 3100 3100 3100 3101 3101
2927 2927 2927 2927 2927 2927 2927 2927 2927 2927 2927 2929 2931 2933 2935 2937 2939 2941 2944 2947 2950 2954 2958 2962 2967 2971 2975 2979 2983 2986 2990 2994 2997 3000 3003 3003 3004 3006 3009 3013 3016 3018 3021 3024 3027 3029 3031 3032 3034 3035 3038 3040 3043 3044 3046 3047 3049 3052 3054 3055 3056 3058 3061 3064 3067 3069 3071 3074 3077 3078 3079 3080 3081 3082 3083 3084 3084 3085 3086 3088 3089 3091 3092 3092 3092 3092 3092 3093 3094 3095 3096 3096 3097 3097 3097 3098 3098 3098 3099 3099 3099 3100 3100
2924 2924 2924 2924 2924 2924 2925 2925 2924 2925 2925 2926 2928 2930 2933 2934 2936 2939 2942 2946 2949 2952 2955 2960 2965 2969 2973 2976 2980 2984 2988 2991 2994 2997 3000 3000 3001 3004 3007 3010 3013 3016 3019 3022 3024 3027 3029 3030 3032 3034 3036 3038 3040 3043 3044 3044 3046 3049 3051 3053 3055 3057 3061 3064 3066 3068 3070 3073 3075 3076 3078 3078 3079 3080 3081 3082 3083 3084 3085 3087 3089 3090 3091 3090 3090 3090 3090 3091 3092 3093 3094 3095 3095 3096 3096 3096 3097 3097 3097 3098 3098 3099 3099
2922 2921 2921 2921 2922 2922 2923 2923 2923 2923 2924 2924 2926 2928 2930 2932 2934 2937 2940 2944 2947 2950 2953 2957 2962 2967 2970 2974 2978 2981 2985 2989 2991 2994 2996 2997 2999 3002 3005 3008 3011 3014 3017 3019 3022 3024 3026 3028 3030 3032 3034 3036 3039 3041 3042 3043 3045 3047 3049 3051 3054 3057 3061 3063 3065 3067 3069 3071 3073 3074 3075 3076 3078 3079 3080 3081 3082 3083 3084 3085 3087 3089 3088 3087 3088 3088 3089 3089 3090 3092 3093 3093 3094 3094 3095 3095 3095 3096 3096 3096 3097 3097 3097
2919 2919 2919 2919 2919 2920 2920 2921 2922 2922 2922 2923 2925 2927 2929 2930 2932 2934 2938 2941 2944 2948 2951 2954 2958 2963 2967 2971 2975 2979 2983 2986 2989 2992 2994 2995 2996 2998 3001 3005 3009 3012 3015 3017 3020 3022 3024 3026 3028 3030 3033 3034 3037 3039 3041 3043 3045 3046 3049 3051 3054 3057 3059 3061 3063 3065 3067 3070 3071 3073 3074 3074 3076 3077 3078 3079 3080 3082 3083 3085 3085 3085 3085 3086 3086 3087 3088 3089 3090 3091 3091 3092 3092 3093 3094 3094 3094 3094 3095 3095 3095 3095 3096
2918 2917 2916 2917 2917 2918 2919 2919 2920 2920 2921 2922 2924 2926 2927 2929 2930 2932 2936 2939 2942 2946 2949 2953 2957 2961 2965 2969 2973 2977 2980 2984 2987 2989 2990 2992 2993 2995 2998 3002 3006 3010 3013 3016 3018 3021 3023 3024 3027 3029 3031 3033 3034 3036 3039 3042 3044 3046 3048 3051 3054 3056 3058 3059 3062 3064 3066 3068 3070 3071 3072 3073 3074 3075 3076 3077 3079 3080 3081 3082 3083 3084 3085 3084 3085 3086 3087 3088 3088 3089 3089 3090 3091 3092 3092 3092 3093 3093 3093 3094 3094 3094 3094
2916 2915 2915 2915 2916 2916 2917 2918 2919 2919 2920 2921 2923 2925 2926 2927 2929 2931 2934 2937 2940 2944 2947 2951 2955 2959 2964 2968 2972 2975 2978 2982 2984 2986 2988 2989 2992 2994 2997 3001 3005 3009 3011 3014 3017 3019 3021 3023 3025 3027 3029 3031 3033 3035 3037 3040 3042 3044 3047 3049 3052 3054 3056 3058 3060 3062 3064 3066 3068 3069 3070 3071 3072 3073 3074 3075 3077 3078 3079 3081 3082 3082 3083 3083 3083 3084 3085 3086 3087 3087 3088 3089 3090 3090 3091 3091 3091 3092 3092 3092 3093 3093 3093
2915 2914 2914 2914 2914 2915 2915 2916 2917 2918 2919 2920 2922 2923 2924 2927 2929 2930 2933 2936 2939 2943 2946 2949 2954 2958 2963 2966 2970 2973 2976 2979 2982 2984 2986 2988 2991 2994 2997 3000 3004 3005 3007 3010 3014 3016 3019 3021 3024 3027 3028 3029 3031 3034 3036 3039 3040 3042 3044 3047 3049 3052 3054 3056 3058 3060 3062 3064 3066 3067 3068 3069 3070 3071 3073 3074 3074 3076 3077 3078 3079 3080 3081 3082 3082 3082 3083 3084 3085 3086 3087 3088 3089 3089 3089 3089 3090 3090 3090 3091 3091 3091 3091
2914 2913 2913 2913 2914 2914 2914 2914 2915 2916 2917 2919 2920 2921 2923 2925 2927 2929 2932 2935 2938 2942 2945 2948 2952 2957 2961 2964 2968 2971 2974 2977 2981 2983 2985 2986 2988 2991 2994 2997 3000 3003 3006 3008 3010 3013 3015 3018 3021 3024 3026 3028 3031 3034 3036 3037 3039 3041 3043 3045 3048 3050 3053 3054 3056 3058 3060 3062 3064 3065 3066 3067 3068 3069 3071 3072 3073 3074 3075 3076 3078 3078 3079 3080 3080 3081 3082 3083 3084 3085 3086 3087 3088 3088 3088 3088 3088 3089 3089 3089 3089 3090 3090
2913 2912 2912 2913 2913 2913 2913 2913 2914 2914 2915 2917 2919 2920 2922 2924 2926 2928 2931 2934 2937 2941 2944 2947 2952 2956 2960 2963 2966 2969 2972 2976 2980 2983 2984 2984 2986 2989 2991 2995 3000 3004 3006 3008 3009 3010 3012 3016 3019 3023 3025 3028 3030 3033 3035 3037 3038 3040 3042 3044 3046 3048 3050 3052 3054 3056 3058 3060 3061 3063 3064 3065 3066 3068 3069 3070 3071 3072 3073 3074 3076 3077 3078 3078 3079 3079 3081 3082 3083 3084 3084 3085 3086 3086 3086 3087 3087 3087 3087 3088 3088 3088 3089
2912 2911 2911 2912 2913 2912 2912 2912 2913 2914 2914 2916 2917 2919 2921 2923 2925 2928 2931 2934 2937 2940 2943 2946 2951 2955 2959 2962 2965 2968 2971 2975 2979 2981 2982 2984 2986 2989 2992 2994 2997 2999 3001 3004 3006 3008 3011 3014 3018 3022 3024 3026 3029 3032 3034 3036 3037 3039 3040 3043 3044 3046 3048 3050 3052 3054 3056 3058 3059 3061 3062 3063 3064 3065 3067 3068 3069 3070 3071 3072 3073 3074 3075 3076 3077 3078 3079 3080 3081 3081 3083 3084 3084 3084 3085 3085 3085 3085 3086 3086 3087 3087 3087
2911 2910 2910 2911 2911 2911 2911 2911 2912 2913 2914 2915 2917 2919 2921 2923 2926 2928 2931 2934 2937 2939 2941 2946 2950 2955 2958 2961 2964 2967 2970 2974 2977 2979 2981 2983 2986 2989 2992 2994 2994 2994 2997 2999 3003 3007 3011 3013 3015 3018 3021 3024 3027 3029 3032 3034 3036 3037 3039 3041 3043 3045 3047 3049 3050 3052 3054 3056 3058 3059 3060 3061 3062 3064 3065 3066 3067 3068 3069 3070 3071 3073 3074 3074 3075 3076 3078 3078 3079 3080 3081 3082 3083 3083 3083 3084 3084 3084 3084 3085 3085 3085 3086
2909 2909 2909 2910 2909 2909 2910 2911 2911 2912 2914 2915 2917 2918 2921 2923 2926 2929 2932 2935 2937 2939 2941 2946 2951 2954 2958 2961 2964 2967 2970 2973 2975 2978 2980 2984 2986 2988 2990 2992 2995 2999 3002 3003 3005 3007 3009 3012 3014 3015 3017 3022 3025 3028 3029 3032 3034 3036 3038 3040 3042 3044 3045 3047 3049 3050 3053 3054 3056 3057 3059 3059 3060 3062 3063 3064 3065 3066 3068 3069 3070 3071 3072 3073 3074 3075 3076 3077 3078 3079 3079 3080 3081 3081 3082 3082 3082 3083 3083 3083 3084 3084 3084
2909 2909 2909 2909 2909 2909 2909 2911 2912 2913 2914 2915 2916 2918 2920 2923 2926 2929 2932 2935 2937 2939 2942 2947 2950 2954 2957 2960 2964 2966 2969 2972 2974 2977 2980 2984 2985 2987 2988 2990 2994 2997 3001 3004 3005 3006 3007 3009 3011 3013 3015 3019 3021 3024 3028 3030 3032 3034 3036 3038 3040 3042 3044 3045 3047 3049 3051 3053 3055 3056 3057 3058 3059 3060 3061 3062 3063 3064 3065 3067 3068 3069 3070 3071 3072 3073 3074 3075 3076 3077 3078 3079 3079 3079 3080 3080 3081 3081 3081 3082 3082 3082 3082
2909 2909 2909 2909 2909 2909 2909 2911 2913 2914 2914 2915 2916 2918 2920 2923 2926 2929 2931 2934 2937 2939 2943 2947 2950 2954 2957 2960 2963 2966 2969 2972 2974 2977 2979 2982 2984 2986 2987 2990 2992 2994 2997 3000 3002 3005 3007 3009 3010 3013 3014 3015 3017 3020 3024 3027 3029 3031 3034 3036 3039 3040 3042 3044 3046 3048 3050 3052 3053 3054 3055 3056 3057 3058 3059 3059 3060 3062 3064 3065 3066 3067 3068 3069 3070 3072 3073 3074 3074 3075 3076 3076 3077 3077 3078 3079 3079 3079 3080 3080 3080 3080 3080
2908 2908 2908 2909 2909 2909 2909 2910 2911 2913 2914 2914 2916 2918 2920 2924 2927 2929 2932 2934 2937 2941 2944 2947 2951 2954 2957 2960 2963 2966 2969 2972 2974 2977 2979 2981 2983 2985 2987 2989 2991 2994 2996 2998 3001 3004 3007 3010 3013 3014 3014 3016 3017 3019 3020 3023 3026 3029 3032 3034 3037 3039 3040 3042 3044 3046 3048 3050 3051 3052 3053 3054 3055 3056 3057 3058 3059 3060 3061 3063 3064 3065 3066 3068 3069 3070 3071 3072 3073 3073 3074 3074 3075 3076 3076 3077 3077 3078 3078 3078 3079 3079 3079